Regional Weather Roundup
Issued by NWS Charleston, SC

Current Version | Previous Version | Graphics & Text | Print | Product List | Glossary On
Versions: 1 2 3 4 5 6 7 8 9 10 11 12 13 14 15 16 17 18 19 20 21 22 23 24 25 26 27 28 29 30 31 32 33 34 35 36 37 38 39 40 41 42 43 44 45 46 47 48 49 50
000 ASUS42 KCHS 241825 RWRCHS REGIONAL WEATHER ROUNDUP NATIONAL WEATHER SERVICE CHARLESTON SC 200 PM EDT THU JUL 24 2014 NOTE: "FAIR" INDICATES FEW OR NO CLOUDS BELOW 12,000 FEET WITH NO SIGNIFICANT WEATHER AND/OR OBSTRUCTIONS TO VISIBILITY. NOT ALL STATIONS ARE QUALITY CONTROLLED BY THE NATIONAL WEATHER SERVICE. USE DATA WITH CAUTION...ESPECIALLY DEWPOINT OBSERVATIONS. SCZ027-030-031-034>040-042>050-241900- ...SOUTH CAROLINA... CITY SKY/WX TMP DP RH WIND PRES REMARKS N CHARLESTON MOSUNNY 93 72 50 SW14G20 29.93F HX 101 6HR MIN TEMP: 81; 6HR MAX TEMP: 94; WATERFRONT PRK N/A 88 N/A N/A S13G18 N/A FORT JOHNSON NOT AVBL MOUNT PLEASANT FAIR 91 73 55 W8 29.92F HX 100 JOHNS ISLAND CLEAR 91 66 43 SW16 29.94F HX 94 PINOPOLIS N/A 91 73 55 SW10 29.85F HX 100 MONCKS CORNER N/A 91 77 62 SW12 29.92F HX 105 SUMMERVILLE FAIR 93 73 52 SW7 29.93F HX 102 BEAUFORT MCAS PTSUNNY 91 72 53 W10G18 29.94F HX 98 6HR MIN TEMP: 80; 6HR MAX TEMP: 93; BEAUFORT ARPT FAIR 91 73 55 SW8G18 29.93F HX 100 HILTON HEAD IS PTSUNNY 88 75 66 S6 29.97F HX 97 GEORGETOWN NOT AVBL WALTERBORO N/A 91 64 40 SW10G18 29.93F HX 93 ORANGEBURG MOSUNNY 91 70 49 SW13 29.92F HX 96 6HR MIN TEMP: 77; 6HR MAX TEMP: 92; BARNWELL FAIR 93 72 49 W12 29.93F HX 100 AIKEN MOCLDY 91 72 52 SW16 29.97F HX 98 MANNING FAIR 91 73 55 SW12 29.90F HX 100 KINGSTREE NOT AVBL COLUMBIA MOSUNNY 94 68 42 SW15G23 29.90F HX 98 6HR MIN TEMP: 80; 6HR MAX TEMP: 95; SUMTER PTSUNNY 92 73 54 SW17 29.89F HX 100 6HR MIN TEMP: 78; 6HR MAX TEMP: 92; FLORENCE PTSUNNY 93 71 48 W13G21 29.89F HX 100 6HR MIN TEMP: 79; 6HR MAX TEMP: 93; MYRTLE BEACH MOSUNNY 93 72 49 SW12G17 29.90F HX 100 N MYRTLE BEACH MOSUNNY 93 70 46 SW15G21 29.89F HX 99 6HR MIN TEMP: 80; 6HR MAX TEMP: 93; $$ GAZ063-065-086>088-099>101-113>116-118-119-134-136>141-150-241900- ...GEORGIA... CITY SKY/WX TMP DP RH WIND PRES REMARKS SAVANNAH ARPT MOSUNNY 92 71 50 W12 29.96F HX 98 6HR MIN TEMP: 78; 6HR MAX TEMP: 93; HUNTER AAF MOSUNNY 91 74 56 SW10 29.95F HX 100 6HR MIN TEMP: 79; 6HR MAX TEMP: 92; FORT STEWART PTSUNNY 90 71 52 SW12 29.96F HX 96 6HR MIN TEMP: 78; 6HR MAX TEMP: 92; STATESBORO NOT AVBL SYLVANIA PTCLDY 91 75 60 SW9 29.96F HX 102 CLAXTON FAIR 91 73 55 W7 29.96F HX 100 THOMSON MOSUNNY 92 77 61 SW8 29.98F HX 104 AUGUSTA-BUSH MOSUNNY 92 70 48 SW15 29.93F HX 97 6HR MIN TEMP: 77; 6HR MAX TEMP: 92; AUGUSTA-DANIEL MOSUNNY 91 70 49 VRB7 29.95F HX 96 SWAINSBORO FAIR 93 72 49 W9G16 29.97F HX 100 VIDALIA N/A 90 72 55 SW10 29.97F HX 96 ALMA MOSUNNY 92 67 43 SW10G20 29.99F HX 95 6HR MIN TEMP: 75; 6HR MAX TEMP: 93; WAYCROSS MOSUNNY 96 74 49 W12G18 29.98F HX 105 JESUP NOT AVBL BRUNSWICK MOSUNNY 93 68 43 CALM 29.99F HX 97 SAINT SIMONS PTSUNNY 89 71 55 W9 29.99F HX 95 6HR MIN TEMP: 78; 6HR MAX TEMP: 90; $$ SCZ027-028-034-036>038-045-046-048>050-GAZ119-141-241900- ...LAKE AND SUPPLEMENTAL COASTAL OBSERVATIONS... STATION/POSITION TIME TEMP WIND PRES WAVE SWELL AIR SEA DIR/SP/G HT/PER HT/PER/DIR (UTC) (F) (DEG/KT/KT) (MB) (FT/S) (FT/S/D) UPR LAKE MARION NOT AVBL WINYAH BAY 1800 90 240/ 10 1013.0S LAKE MURRAY 1700 87 230/ 9/ 17 1012.5F ACE BASIN NERRS 1800 90 230/ 3 1015.0S FORT PULASKI 1800 89 200/ 7/ 10 1014.7F SAPELO ISLAND 1800 91 260/ 10 1016.0S $$ ANZ835-935-AMZ111-154-330-350-352-354-374-450-454-472-241900- ...C-MAN AND BUOY OBSERVATIONS... STATION/POSITION TIME TEMP WIND PRES WAVE SWELL AIR SEA DIR/SP/G HT/PER HT/PER/DIR (UTC) (F) (DEG/KT/KT) (MB) (FT/S) (FT/S/D) FOLLY BEACH CMAN 1800 86 200/ 14/ 16 1014.3F BUOY 41004 1800 83 83 230/ 14/ 16 1013.9F 3/ 6 2/ 7 BUOY 41008 1800 84 85 210/ 10/ 12 1015.6F 2/ 7 2/110/ 7 5E ST. MARYS GA 1800 87 N/A 1/ 8 FRYING PAN BUOY NOT AVBL BUOY 41025 1800 VRB 19/ 23 1011.3F 4/ 5 2/170/ 7 CAPE LOOKOUT NC 1800 84 220/ 15/ 21 1011.8F BUOY 41002 1704 82 82 240/ 19/ 23 1016.8F 5/ 6 BUOY 41010 1800 82 84 210/ 10/ 12 1018.2F 3/ 4 3/140/ 7 BUOY 41012 NOT AVBL ST AUGUSTINE FL 1800 89 230/ 3/ 5 1017.2F CAPERS NEARSHORE 1700 85 230/ 14/ 14 N/A FRIPP NEARSHORE NOT AVBL $$

USA.gov is the U.S. government's official web portal to all federal, state and local government web resources and services.